Main page
METAR-TAF:

METAR-TAF

Airports :

P11-b, Netherlands

Oil platform

latitude: 52-21-36N, longitude: 3-20-30E, elevation: 24 m

Current weather observation

The report was made 21 minutes ago, at 06:55 UTC
Wind 16 kt from the East
Temperature 14°C
Humidity 82%
Pressure 1023 hPa
Visibility 10 km or more

METAR: EHPG 260655Z AUTO 08016KT 9999 NSC 14/11 Q1023

Time: 09:16 (07:16 UTC)


TAF: missing

Weather observations and forecasts of more than 4000 airports (METAR and TAF reports).

The available stations are represented by yellow and red dots on the map.

Hover mouse over dot to see the name of the station.

Then click to see weather observations and forecasts.

To change the map : click on the green buttons with a black cross to zoom in, on the green button with a dash to zoom out, or on the green arrows for adjacent maps.


METAR-TAF: